Theta_e
336 343 349 351 351 350 350 349 348 348 345 344 343 344 343 340 339 342 341 342 339 338 339 337 336 337 335 336 335 336 337 337 338 339 339 339 339 340 341 340 340 336 341
339 344 347 350 350 350 350 349 348 348 346 343 342 341 342 341 339 339 339 339 337 339 336 336 335 334 334 334 335 334 337 337 336 338 338 339 341 341 341 340 340 337 339
341 345 347 348 349 349 349 349 348 348 345 344 344 340 340 342 340 338 337 335 337 336 335 335 333 334 334 333 333 335 337 338 337 338 335 330 336 340 339 337 336 336 336
342 344 346 346 349 349 349 348 347 346 345 342 342 340 339 343 340 338 336 336 338 335 336 334 334 334 334 334 334 336 336 337 337 336 330 332 335 338 336 334 334 333 332
342 343 344 346 348 348 347 346 344 343 343 341 338 340 339 343 340 338 336 336 337 336 334 334 334 334 335 335 335 334 335 335 336 334 330 330 331 334 334 333 331 330 329
340 342 342 346 347 347 346 344 343 343 341 341 340 340 338 338 341 340 338 338 336 336 332 333 334 334 334 333 332 332 335 337 333 329 328 333 330 333 332 331 328 328 327
338 341 343 344 346 346 345 344 343 342 341 338 336 336 338 340 341 340 338 336 335 334 333 333 333 333 331 330 330 333 336 335 330 327 327 330 329 332 330 328 327 326 325
338 341 342 338 341 343 344 343 343 343 340 339 338 338 338 338 341 340 338 336 335 333 332 333 333 330 328 328 330 331 331 333 331 330 329 327 332 330 328 326 325 325 324
340 340 339 339 338 336 339 339 340 340 339 338 337 334 334 335 339 339 338 337 335 333 333 332 330 329 327 328 329 329 328 329 330 330 329 328 332 328 326 325 324 323 323
338 339 337 337 337 337 336 333 334 336 336 336 334 331 329 329 333 334 332 335 336 334 333 332 330 328 327 325 327 327 326 326 323 324 325 325 330 328 326 324 322 322 322
335 335 336 335 335 334 334 331 330 331 331 330 329 326 325 328 328 327 328 333 336 335 333 331 330 329 327 325 325 325 322 320 321 323 323 329 329 327 325 323 322 321 321
330 332 334 334 334 334 336 332 331 331 329 327 325 323 323 323 323 324 324 328 332 332 334 332 331 329 323 316 316 320 317 318 318 320 322 329 328 327 325 323 321 320 319
328 331 332 333 333 333 334 332 332 329 327 325 322 322 321 321 320 321 321 323 324 322 325 328 327 322 318 317 318 317 317 315 315 316 322 328 329 326 324 323 321 320 318
324 328 332 332 332 333 333 332 332 329 327 324 323 322 320 318 318 319 319 320 320 320 318 319 319 320 318 318 318 317 317 315 314 314 316 323 329 326 325 323 322 320 319
325 326 329 331 330 332 331 331 331 330 328 326 324 323 322 319 318 319 319 319 319 318 316 316 316 316 317 318 318 317 317 316 314 314 313 317 324 328 326 324 323 321 320
327 326 327 329 329 330 330 329 329 330 329 327 325 323 322 322 320 319 319 319 319 318 317 317 316 317 317 317 318 317 317 317 315 314 314 313 321 326 327 326 325 324 323
328 328 327 326 327 328 328 328 329 329 329 327 326 323 323 323 321 321 319 318 319 319 317 316 316 316 316 317 317 317 317 317 317 315 313 313 315 320 324 327 326 326 325
328 328 328 329 326 326 327 327 328 329 328 327 326 324 323 323 322 320 320 319 318 318 318 315 315 314 314 314 315 316 316 317 317 317 314 312 312 315 318 324 326 326 326
327 328 328 328 326 325 326 326 326 325 326 326 326 325 323 324 323 322 321 320 318 318 317 316 314 314 312 312 314 315 315 316 317 318 315 314 312 312 312 317 320 322 325
327 328 329 329 328 326 326 326 325 324 324 325 325 325 324 324 324 322 321 319 318 317 316 314 314 313 313 313 315 316 315 317 317 316 315 316 314 313 312 311 311 313 318
325 326 327 327 328 326 325 323 324 322 323 323 324 324 324 325 324 322 321 318 317 317 317 315 314 313 313 312 312 312 314 316 314 314 314 314 314 314 312 312 311 310 311
322 325 326 327 327 327 327 326 326 325 325 324 324 323 323 324 324 323 321 318 317 316 315 314 314 311 313 313 311 310 307 308 310 315 313 315 314 313 313 312 311 310 309
318 323 325 326 327 328 328 327 326 325 325 323 323 322 322 322 323 323 322 320 317 316 315 314 314 314 312 312 315 311 306 303 304 309 310 314 314 312 314 313 311 310 309
311 321 325 326 326 328 328 326 324 323 321 323 323 323 323 322 322 322 322 321 319 317 316 315 315 315 314 311 311 316 311 308 304 304 309 309 311 311 312 312 312 310 309
309 314 323 325 326 327 327 327 326 324 325 325 324 323 323 323 322 321 321 321 320 319 318 316 315 314 315 314 314 310 315 312 309 307 306 309 309 311 313 313 312 310 310
307 312 319 323 324 326 326 327 326 325 324 324 323 322 323 322 322 321 321 321 320 319 319 318 316 316 316 316 316 316 313 313 313 310 309 310 308 310 311 312 311 311 311
Wind_Speed
3 5 9 10 15 15 16 17 17 16 15 15 15 15 15 16 16 14 14 17 14 15 15 15 16 16 15 17 18 16 13 15 14 14 15 14 13 13 17 15 14 10 19
9 6 9 11 15 17 16 16 15 15 15 13 14 12 13 14 17 15 14 14 14 15 15 15 15 15 14 14 13 13 11 13 11 11 10 12 18 19 20 20 18 16 19
10 9 7 11 13 14 14 11 10 13 14 12 14 14 12 13 18 16 14 13 13 14 14 14 14 14 13 13 7 6 9 10 9 7 8 4 9 18 17 16 17 15 15
12 9 8 11 13 13 12 11 12 12 12 10 11 13 9 15 17 17 14 13 13 13 12 13 13 12 10 8 5 8 9 11 9 8 5 5 9 15 15 15 15 15 14
9 9 10 12 13 12 11 12 12 12 9 8 10 10 11 13 16 18 13 12 13 12 12 12 11 10 8 6 8 9 9 9 11 9 6 5 5 11 14 15 13 13 12
9 9 11 12 12 13 12 12 12 12 11 10 9 7 10 9 14 16 12 11 13 11 11 10 10 8 6 6 5 7 7 13 10 6 6 8 7 12 14 14 13 13 13
8 8 9 13 12 12 12 11 11 11 13 11 11 10 10 8 15 16 13 11 10 11 10 9 8 6 4 5 4 7 6 13 6 6 5 5 7 12 12 12 12 12 12
11 9 8 10 12 11 12 11 9 10 13 11 11 10 7 5 13 16 15 11 10 10 10 9 7 5 3 4 5 7 8 9 7 6 6 4 11 10 11 11 10 11 10
12 10 7 7 9 11 11 10 10 9 11 12 11 12 11 9 9 13 14 12 11 11 9 8 6 4 3 4 5 8 6 6 5 5 5 3 8 8 9 9 9 9 8
11 11 9 7 7 7 7 11 9 9 9 10 11 10 10 10 7 9 8 11 10 10 9 7 6 3 1 2 3 6 8 8 5 4 4 3 8 8 8 8 7 7 7
6 11 10 9 8 7 7 7 9 10 9 9 8 10 8 4 6 6 5 8 11 10 9 8 6 4 2 3 4 6 5 3 4 3 2 7 7 7 7 7 6 6 6
8 8 10 10 10 9 7 7 6 6 5 5 6 7 5 5 4 4 5 8 10 11 10 9 7 5 2 2 3 4 2 3 3 3 2 6 6 6 6 6 5 5 5
7 7 10 11 11 11 9 6 4 4 4 4 7 6 5 4 3 3 2 2 3 6 3 4 4 3 3 2 3 3 2 3 2 2 3 7 6 6 6 5 4 5 4
7 11 11 11 11 11 7 8 8 6 6 6 6 8 5 3 4 4 3 4 4 3 5 4 3 4 4 5 5 4 3 3 3 2 3 7 7 6 6 5 5 5 5
12 10 12 12 11 10 10 8 8 9 8 8 7 8 7 5 5 4 4 4 4 4 4 4 4 4 5 5 5 5 4 4 4 3 2 7 8 7 7 6 6 6 6
12 14 10 13 12 11 11 11 9 8 9 8 8 8 10 8 7 6 5 5 5 4 4 4 5 5 5 5 5 5 5 4 5 5 4 4 8 9 10 9 9 9 9
16 13 14 12 12 12 13 11 9 9 9 9 9 9 11 9 9 9 7 6 6 5 6 4 4 4 4 4 5 5 5 6 5 6 5 4 4 9 10 13 12 11 12
15 15 14 14 13 13 13 10 9 9 9 9 9 9 11 12 11 8 7 7 6 5 6 4 4 4 4 4 4 5 4 5 6 7 5 5 5 4 7 13 14 14 14
16 17 16 16 17 15 12 10 10 11 9 9 9 10 13 13 12 10 8 7 7 6 6 6 5 4 4 4 5 5 5 5 7 6 7 6 7 6 5 9 12 12 15
16 16 17 14 18 18 12 10 8 8 9 8 10 10 13 12 14 12 9 9 8 6 7 4 5 4 4 5 4 5 5 6 6 6 6 6 7 8 7 7 5 6 13
14 15 19 16 19 13 14 12 12 13 10 9 10 13 13 13 14 14 10 10 9 10 11 9 6 7 7 4 2 3 4 7 7 6 5 5 7 7 7 7 5 4 5
16 17 17 19 19 17 13 14 13 12 11 10 8 11 13 14 14 14 14 11 12 9 10 10 10 4 6 6 4 1 3 4 4 9 5 7 9 5 7 8 7 7 6
15 17 18 19 19 18 19 10 9 7 8 8 10 11 13 15 15 16 15 13 11 12 11 11 12 14 9 5 10 5 3 6 1 2 6 8 8 5 7 7 7 7 7
17 17 19 19 19 18 18 14 18 14 14 13 12 11 12 15 16 17 16 15 14 11 14 12 11 12 10 9 3 10 4 4 5 3 3 4 5 7 8 6 7 7 7
15 15 16 19 18 19 18 20 16 17 14 10 10 13 15 14 17 17 18 17 16 12 14 15 13 14 12 10 9 3 12 7 3 3 5 4 2 5 6 7 7 6 7
11 12 12 16 18 18 18 21 21 21 18 13 13 12 12 12 11 17 17 17 16 15 16 14 14 16 15 13 11 11 8 9 12 9 9 9 6 4 5 6 6 6 6
Wind_Direction
169 155 146 142 127 123 117 113 112 107 104 104 105 103 109 105 99 90 90 93 97 98 96 97 90 90 89 87 87 83 79 73 69 66 69 72 77 78 71 87 72 71 80
139 144 148 139 130 128 124 125 127 123 118 108 109 109 113 118 110 101 86 100 109 100 105 95 93 96 92 93 85 82 49 97 93 82 67 63 84 80 70 69 70 69 65
135 137 140 132 133 130 130 134 141 121 119 127 124 114 127 124 114 111 106 113 110 106 104 102 96 98 95 99 94 48 49 87 104 78 67 67 75 75 73 66 62 64 64
138 138 131 134 134 135 129 123 110 109 109 116 124 118 124 126 119 113 116 118 114 111 112 103 102 100 100 100 75 37 46 34 26 85 62 51 65 68 66 65 63 63 59
136 138 138 137 136 134 130 123 118 114 124 126 139 147 133 119 126 119 123 127 118 123 110 109 108 107 101 80 43 29 18 38 71 81 80 65 64 64 63 67 66 67 73
139 141 146 140 141 138 137 136 137 140 135 143 134 139 135 139 134 125 134 133 122 128 121 117 110 108 95 70 39 27 8 103 83 72 66 73 62 66 66 68 72 77 79
141 147 152 145 146 146 147 149 151 152 142 145 155 161 151 139 145 134 135 139 144 134 123 123 114 104 82 71 37 28 72 110 106 91 77 71 79 70 68 73 79 84 87
148 154 154 155 149 155 156 155 159 157 139 159 155 163 172 152 148 140 144 149 153 140 134 125 127 127 104 73 48 39 35 121 110 97 94 81 87 74 79 83 87 90 92
152 152 152 159 164 161 160 161 160 157 152 150 159 170 175 183 153 148 148 153 156 156 142 142 146 139 110 83 49 19 43 61 111 123 101 70 87 82 95 95 97 97 103
153 156 162 159 162 165 167 165 167 164 158 153 154 172 179 185 140 158 152 158 163 151 153 157 165 164 134 93 65 46 83 77 82 84 91 110 96 107 108 103 107 109 106
159 165 166 170 167 167 169 175 171 167 165 159 157 167 183 185 184 178 166 171 153 152 165 170 178 194 250 348 4 56 86 110 112 115 121 125 125 124 122 119 124 118 113
188 190 180 175 173 168 179 171 170 169 164 169 176 173 175 196 188 172 175 176 160 159 172 185 191 202 245 323 343 7 101 140 128 148 170 159 156 144 133 138 137 129 127
199 197 201 181 183 174 178 174 180 168 172 173 178 179 184 186 201 163 160 168 157 161 173 191 197 203 232 261 288 284 160 154 174 180 196 182 183 166 158 151 149 145 153
204 204 200 195 190 183 177 178 178 184 180 181 186 185 172 183 198 193 175 189 181 186 186 193 205 215 232 251 253 231 203 156 184 192 223 208 205 194 181 174 175 181 176
202 201 206 196 197 190 183 185 183 188 188 191 189 193 179 181 196 194 191 189 189 186 194 203 210 213 226 235 228 210 209 179 185 203 209 230 217 220 211 203 205 203 203
212 209 187 201 201 194 193 187 190 184 187 191 197 197 191 185 191 202 200 198 199 197 200 200 203 209 223 215 224 216 222 214 199 207 204 221 231 230 232 228 224 219 219
217 208 199 196 198 204 201 194 190 192 186 195 197 201 192 188 193 193 200 200 203 200 204 211 227 223 224 227 228 222 218 223 222 216 211 216 230 235 235 240 239 236 234
221 208 200 195 196 204 205 201 198 198 193 196 200 196 198 191 191 198 199 206 201 198 203 193 203 215 221 209 217 226 223 218 224 219 211 209 217 222 233 238 242 244 245
217 214 208 199 194 201 204 202 204 199 205 200 198 201 202 200 194 198 203 203 195 201 205 206 208 186 198 214 219 227 229 225 228 225 218 221 212 216 220 233 232 237 245
218 215 212 207 207 192 201 204 206 208 204 203 200 206 202 204 200 200 204 204 191 197 209 201 202 199 200 197 213 230 234 232 228 215 217 218 217 217 216 221 220 227 235
221 216 212 203 207 203 192 201 207 213 210 210 207 205 203 206 202 202 204 202 197 202 208 203 202 200 222 201 168 263 261 242 235 229 217 217 226 219 219 223 220 218 228
218 215 216 213 208 204 210 196 213 211 213 215 211 211 204 203 204 204 205 205 204 203 209 200 200 197 214 179 177 153 253 296 265 240 225 232 233 209 221 224 217 216 215
221 215 214 216 213 210 208 207 209 212 217 207 212 213 210 204 204 207 209 207 204 202 208 208 205 207 214 201 201 165 188 227 262 241 231 236 236 215 224 219 222 219 214
232 222 215 213 211 211 203 203 196 211 212 216 215 219 218 211 209 208 211 209 208 207 212 209 207 211 208 210 203 226 212 161 193 293 264 244 221 231 228 220 226 223 212
243 228 215 213 212 211 204 205 207 211 225 219 217 217 215 216 214 212 212 210 213 212 217 210 206 209 210 214 212 163 226 226 243 195 262 256 266 222 228 222 216 216 211
236 228 219 212 213 210 208 208 208 213 214 214 215 216 218 216 214 217 216 215 214 213 215 213 208 209 212 216 218 217 205 206 220 221 240 239 226 250 229 228 227 234 224